Location: Borgo
(42.3939°N, 9.2791°E)
Time: 00:52:18
(UTC+00:00)

CSL-04 Debris - Pass Details

Date: 24 January 2021
Orbit: 827 x 847 km, 98.9° (Epoch: 08 March)

Event Time Altitude Azimuth Distance (km) Brightness Sun altitude
Rises 18:16:03 0° 159° (SSE) 3,357 7.2 -20.1°
Reaches altitude 10° 18:18:24 10° 158° (SSE) 2,426 6.4 -20.5°
Maximum altitude 18:23:45 76° 73° (ENE) 855 4.0 -21.5°
Drops below altitude 10° 18:29:09 10° 349° (N) 2,440 6.6 -22.5°
Sets 18:31:31 0° 348° (NNW) 3,379 7.4 -22.9°
